| time (UTC) | temp F | wind direction | speed knots | gust knots | rain 1hr in | rain 24hr in | rain mn in | humidity % | barometer mb |
| 20260507001204 | 82 | 39 | 0.9 | 2.6 | 0.00 | 0.04 | 0.04 | 85 | 1005.6 |
| 20260507000703 | 82 | 338 | 0.0 | 2.6 | 0.00 | 0.04 | 0.04 | 85 | 1005.5 |
| 20260507000205 | 82 | 340 | 0.9 | 2.6 | 0.00 | 0.04 | 0.04 | 84 | 1005.3 |
| 20260506235704 | 83 | 277 | 0.9 | 2.6 | 0.00 | 0.04 | 0.04 | 84 | 1005.3 |
| 20260506234703 | 83 | 22 | 0.9 | 2.6 | 0.00 | 0.04 | 0.04 | 83 | 1005.2 |
| 20260506234204 | 83 | 166 | 1.7 | 2.6 | 0.00 | 0.04 | 0.04 | 82 | 1005.3 |
| 20260506233203 | 83 | 135 | 0.9 | 2.6 | 0.00 | 0.04 | 0.04 | 82 | 1005.1 |
| 20260506232704 | 84 | 46 | 0.9 | 2.6 | 0.00 | 0.04 | 0.04 | 82 | 1005.2 |
| 20260506231704 | 83 | 222 | 0.9 | 1.7 | 0.00 | 0.04 | 0.04 | 82 | 1005.0 |
| 20260506231204 | 84 | 22 | 0.9 | 2.6 | 0.00 | 0.04 | 0.04 | 83 | 1004.9 |
| 20260506230703 | 83 | 89 | 0.9 | 2.6 | 0.00 | 0.04 | 0.04 | 82 | 1005.0 |
| 20260506225703 | 84 | 123 | 1.7 | 4.3 | 0.00 | 0.04 | 0.04 | 81 | 1004.8 |
| 20260506225204 | 83 | 151 | 0.9 | 4.3 | 0.00 | 0.04 | 0.04 | 84 | 1004.8 |
| 20260506224203 | 83 | 67 | 1.7 | 5.2 | 0.00 | 0.04 | 0.04 | 84 | 1004.8 |
| 20260506223703 | 83 | 63 | 1.7 | 5.2 | 0.00 | 0.04 | 0.04 | 83 | 1004.9 |
| 20260506222704 | 84 | 251 | 0.9 | 7.0 | 0.00 | 0.04 | 0.04 | 83 | 1004.7 |
| 20260506220203 | 86 | 74 | 2.6 | 6.1 | 0.00 | 0.04 | 0.04 | 78 | 1004.6 |
| 20260506215704 | 87 | 53 | 1.7 | 5.2 | 0.00 | 0.04 | 0.04 | 76 | 1004.5 |
| 20260506215203 | 88 | 201 | 0.9 | 1.7 | 0.00 | 0.04 | 0.04 | 74 | 1004.6 |
| 20260506214204 | 87 | 354 | 0.9 | 1.7 | 0.00 | 0.04 | 0.04 | 74 | 1004.6 |
| 20260506213704 | 87 | 3 | 0.9 | 4.3 | 0.00 | 0.04 | 0.04 | 73 | 1004.6 |
| 20260506213204 | 87 | 355 | 0.9 | 4.3 | 0.00 | 0.04 | 0.04 | 72 | 1004.8 |
| 20260506212204 | 87 | 233 | 0.0 | 4.3 | 0.00 | 0.04 | 0.04 | 74 | 1004.8 |
| 20260506211704 | 87 | 2 | 1.7 | 4.3 | 0.00 | 0.04 | 0.04 | 75 | 1004.6 |
| 20260506211203 | 87 | 353 | 1.7 | 5.2 | 0.00 | 0.04 | 0.04 | 75 | 1004.6 |
| 20260506210704 | 86 | 330 | 1.7 | 5.2 | 0.00 | 0.04 | 0.04 | 76 | 1004.7 |
| 20260506210204 | 87 | 45 | 2.6 | 5.2 | 0.00 | 0.04 | 0.04 | 74 | 1004.7 |
| 20260506205704 | 87 | 46 | 1.7 | 5.2 | 0.00 | 0.04 | 0.04 | 76 | 1004.8 |
| 20260506205204 | 87 | 332 | 2.6 | 5.2 | 0.00 | 0.04 | 0.04 | 74 | 1004.9 |
| 20260506204204 | 87 | 25 | 1.7 | 5.2 | 0.00 | 0.04 | 0.04 | 75 | 1004.8 |
| 20260506203703 | 87 | 340 | 3.5 | 5.2 | 0.00 | 0.04 | 0.04 | 76 | 1004.9 |
| 20260506203203 | 86 | 351 | 1.7 | 4.3 | 0.00 | 0.04 | 0.04 | 77 | 1005.1 |
| 20260506202204 | 86 | 277 | 1.7 | 4.3 | 0.00 | 0.04 | 0.04 | 77 | 1005.1 |
| 20260506201704 | 85 | 18 | 0.0 | 2.6 | 0.00 | 0.04 | 0.04 | 78 | 1005.2 |
| 20260506200704 | 85 | 177 | 0.9 | 5.2 | 0.00 | 0.04 | 0.04 | 78 | 1005.2 |
| 20260506200204 | 85 | 160 | 1.7 | 4.3 | 0.00 | 0.04 | 0.04 | 78 | 1005.3 |
| 20260506195704 | 85 | 179 | 1.7 | 4.3 | 0.00 | 0.04 | 0.04 | 80 | 1005.3 |
| 20260506195203 | 85 | 158 | 0.9 | 4.3 | 0.00 | 0.04 | 0.04 | 79 | 1005.5 |
| 20260506194703 | 85 | 169 | 1.7 | 4.3 | 0.00 | 0.04 | 0.04 | 79 | 1005.6 |
| 20260506194203 | 85 | 178 | 1.7 | 4.3 | 0.00 | 0.04 | 0.04 | 79 | 1005.9 |
| 20260506193704 | 84 | 195 | 1.7 | 4.3 | 0.00 | 0.04 | 0.04 | 81 | 1005.7 |
| 20260506193204 | 84 | 189 | 1.7 | 4.3 | 0.00 | 0.04 | 0.04 | 81 | 1005.9 |
| 20260506192703 | 84 | 175 | 1.7 | 4.3 | 0.00 | 0.04 | 0.04 | 81 | 1006.0 |
| 20260506192204 | 85 | 189 | 1.7 | 4.3 | 0.00 | 0.04 | 0.04 | 79 | 1005.9 |
| 20260506191704 | 84 | 194 | 0.9 | 4.3 | 0.00 | 0.04 | 0.04 | 81 | 1006.1 |
| 20260506191203 | 84 | 142 | 1.7 | 4.3 | 0.00 | 0.04 | 0.04 | 81 | 1006.1 |
| 20260506190703 | 84 | 129 | 0.9 | 2.6 | 0.00 | 0.04 | 0.04 | 82 | 1006.1 |
| 20260506190203 | 83 | 187 | 1.7 | 2.6 | 0.00 | 0.04 | 0.04 | 82 | 1006.1 |
| 20260506184204 | 83 | 187 | 0.9 | 2.6 | 0.00 | 0.04 | 0.04 | 83 | 1006.2 |
| 20260506183704 | 83 | 151 | 0.9 | 2.6 | 0.00 | 0.04 | 0.04 | 82 | 1006.3 |
| 20260506182704 | 83 | 152 | 0.9 | 4.3 | 0.00 | 0.04 | 0.04 | 83 | 1006.2 |
| 20260506182204 | 82 | 160 | 1.7 | 4.3 | 0.00 | 0.04 | 0.04 | 84 | 1006.5 |
| 20260506181203 | 83 | 199 | 0.9 | 4.3 | 0.00 | 0.04 | 0.04 | 83 | 1006.7 |
| 20260506180703 | 83 | 139 | 0.9 | 4.3 | 0.00 | 0.04 | 0.04 | 84 | 1006.9 |
| 20260506180203 | 82 | 10 | 0.0 | 1.7 | 0.00 | 0.04 | 0.04 | 84 | 1006.8 |
| 20260506175703 | 82 | 337 | 0.0 | 1.7 | 0.00 | 0.04 | 0.04 | 84 | 1006.8 |
| 20260506175204 | 82 | 319 | 0.0 | 1.7 | 0.00 | 0.04 | 0.04 | 85 | 1006.7 |
| 20260506174703 | 82 | 210 | 0.9 | 2.6 | 0.00 | 0.04 | 0.04 | 84 | 1006.7 |
| 20260506174203 | 82 | 294 | 0.9 | 2.6 | 0.00 | 0.04 | 0.04 | 84 | 1006.8 |
| 20260506173704 | 82 | 193 | 1.7 | 2.6 | 0.00 | 0.04 | 0.04 | 83 | 1006.8 |
| 20260506173204 | 82 | 1 | 0.9 | 1.7 | 0.00 | 0.04 | 0.04 | 86 | 1007.0 |
| 20260506172704 | 81 | 188 | 0.0 | 1.7 | 0.00 | 0.04 | 0.04 | 86 | 1006.9 |
| 20260506171703 | 81 | 211 | 0.0 | 2.6 | 0.00 | 0.04 | 0.04 | 87 | 1007.0 |
| 20260506171204 | 81 | 171 | 0.0 | 1.7 | 0.00 | 0.04 | 0.04 | 87 | 1007.0 |
| 20260506170704 | 82 | 146 | 0.0 | 1.7 | 0.00 | 0.04 | 0.04 | 86 | 1006.9 |
| 20260506170204 | 81 | 176 | 0.9 | 2.6 | 0.00 | 0.04 | 0.04 | 86 | 1006.9 |
| 20260506165704 | 81 | 340 | 0.0 | 2.6 | 0.00 | 0.04 | 0.04 | 87 | 1007.0 |
| 20260506165204 | 81 | 196 | 1.7 | 2.6 | 0.00 | 0.04 | 0.04 | 86 | 1006.9 |
| 20260506164703 | 81 | 190 | 1.7 | 2.6 | 0.00 | 0.04 | 0.04 | 87 | 1006.7 |
| 20260506164204 | 81 | 304 | 0.9 | 2.6 | 0.00 | 0.04 | 0.04 | 88 | 1007.0 |
| 20260506163704 | 81 | 193 | 0.9 | 2.6 | 0.00 | 0.04 | 0.04 | 87 | 1006.8 |
| 20260506163204 | 81 | 204 | 0.9 | 2.6 | 0.00 | 0.04 | 0.04 | 88 | 1006.8 |
| 20260506162704 | 81 | 199 | 0.9 | 2.6 | 0.00 | 0.04 | 0.04 | 88 | 1006.8 |
| 20260506162204 | 81 | 304 | 0.9 | 2.6 | 0.00 | 0.04 | 0.04 | 88 | 1006.8 |
| 20260506161703 | 81 | 202 | 1.7 | 1.7 | 0.00 | 0.04 | 0.04 | 88 | 1006.5 |
| 20260506161204 | 81 | 233 | 0.9 | 1.7 | 0.00 | 0.04 | 0.04 | 88 | 1006.6 |
| 20260506160704 | 80 | 213 | 0.9 | 2.6 | 0.00 | 0.04 | 0.04 | 89 | 1006.6 |
| 20260506160204 | 80 | 201 | 0.9 | 2.6 | 0.00 | 0.04 | 0.04 | 90 | 1006.4 |
| 20260506155704 | 80 | 35 | 0.9 | 4.3 | 0.00 | 0.04 | 0.04 | 90 | 1006.3 |
| 20260506154703 | 80 | 226 | 0.0 | 2.6 | 0.00 | 0.04 | 0.04 | 89 | 1006.1 |
| 20260506154203 | 80 | 33 | 0.9 | 4.3 | 0.00 | 0.04 | 0.04 | 89 | 1006.1 |
| 20260506153704 | 80 | 58 | 0.9 | 4.3 | 0.00 | 0.04 | 0.04 | 90 | 1006.3 |
| 20260506153204 | 80 | 319 | 0.9 | 5.2 | 0.00 | 0.04 | 0.04 | 91 | 1006.0 |
| 20260506152703 | 79 | 50 | 0.9 | 5.2 | 0.00 | 0.04 | 0.04 | 91 | 1005.9 |
| 20260506152203 | 79 | 61 | 1.7 | 4.3 | 0.00 | 0.04 | 0.04 | 92 | 1006.1 |
| 20260506151703 | 79 | 58 | 1.7 | 4.3 | 0.00 | 0.04 | 0.04 | 91 | 1006.0 |
| 20260506151204 | 79 | 307 | 0.9 | 4.3 | 0.00 | 0.04 | 0.04 | 92 | 1005.9 |
| 20260506150704 | 79 | 61 | 1.7 | 4.3 | 0.00 | 0.04 | 0.04 | 93 | 1005.9 |
| 20260506145704 | 78 | 274 | 0.9 | 2.6 | 0.00 | 0.04 | 0.04 | 94 | 1005.9 |
| 20260506145204 | 78 | 271 | 0.9 | 2.6 | 0.00 | 0.04 | 0.04 | 94 | 1005.7 |
| 20260506144703 | 78 | 128 | 0.0 | 2.6 | 0.00 | 0.04 | 0.04 | 94 | 1005.6 |
| 20260506143703 | 77 | 30 | 0.9 | 2.6 | 0.01 | 0.04 | 0.04 | 95 | 1005.7 |
| 20260506143204 | 77 | 339 | 0.0 | 2.6 | 0.01 | 0.04 | 0.04 | 95 | 1005.6 |
| 20260506142704 | 77 | 73 | 0.9 | 2.6 | 0.01 | 0.04 | 0.04 | 96 | 1005.6 |
| 20260506142204 | 77 | 104 | 0.9 | 2.6 | 0.00 | 0.04 | 0.04 | 96 | 1005.7 |
| 20260506141704 | 77 | 347 | 0.0 | 2.6 | 0.00 | 0.04 | 0.04 | 95 | 1005.8 |
| 20260506141204 | 77 | 282 | 0.9 | 2.6 | 0.00 | 0.04 | 0.04 | 96 | 1005.8 |
| 20260506140704 | 77 | 42 | 0.9 | 2.6 | 0.00 | 0.04 | 0.04 | 96 | 1005.4 |
| 20260506140204 | 77 | 69 | 0.0 | 1.7 | 0.01 | 0.04 | 0.04 | 95 | 1005.4 |
| 20260506135704 | 77 | 270 | 0.0 | 1.7 | 0.01 | 0.04 | 0.04 | 96 | 1005.6 |
| 20260506135204 | 77 | 117 | 0.9 | 1.7 | 0.01 | 0.04 | 0.04 | 95 | 1005.4 |
| 20260506134704 | 76 | 233 | 0.9 | 1.7 | 0.01 | 0.04 | 0.04 | 95 | 1005.5 |
| 20260506134204 | 76 | 223 | 0.0 | 1.7 | 0.01 | 0.03 | 0.03 | 95 | 1005.6 |
| 20260506133704 | 76 | 237 | 0.0 | 1.7 | 0.01 | 0.03 | 0.03 | 95 | 1005.7 |
| 20260506132703 | 76 | 89 | 0.9 | 2.6 | 0.01 | 0.03 | 0.03 | 95 | 1005.6 |
| 20260506132203 | 76 | 116 | 0.0 | 2.6 | 0.01 | 0.03 | 0.03 | 95 | 1005.7 |
| 20260506131703 | 76 | 172 | 0.9 | 2.6 | 0.01 | 0.03 | 0.03 | 95 | 1005.7 |
| 20260506131203 | 76 | 319 | 0.0 | 1.7 | 0.01 | 0.03 | 0.03 | 95 | 1005.7 |
| 20260506130704 | 76 | 38 | 0.0 | 1.7 | 0.01 | 0.03 | 0.03 | 95 | 1005.7 |
| 20260506130204 | 76 | 59 | 0.9 | 2.6 | 0.01 | 0.03 | 0.03 | 95 | 1005.5 |
| 20260506125703 | 76 | 325 | 0.0 | 2.6 | 0.01 | 0.03 | 0.03 | 96 | 1005.6 |
| 20260506125204 | 76 | 79 | 0.9 | 2.6 | 0.01 | 0.03 | 0.03 | 96 | 1005.5 |
| 20260506124704 | 76 | 358 | 0.0 | 2.6 | 0.01 | 0.03 | 0.02 | 96 | 1005.6 |
| 20260506124204 | 76 | 94 | 0.9 | 1.7 | 0.01 | 0.03 | 0.02 | 96 | 1005.4 |
| 20260506123703 | 76 | 37 | 0.0 | 1.7 | 0.01 | 0.03 | 0.02 | 96 | 1005.6 |
| 20260506122203 | 76 | 351 | 0.9 | 1.7 | 0.01 | 0.02 | 0.02 | 96 | 1005.7 |
| 20260506121704 | 76 | 331 | 0.9 | 1.7 | 0.01 | 0.02 | 0.02 | 96 | 1005.5 |
| 20260506120704 | 76 | 161 | 0.0 | 1.7 | 0.01 | 0.02 | 0.02 | 96 | 1005.4 |
| 20260506120203 | 76 | 5 | 0.0 | 1.7 | 0.01 | 0.02 | 0.02 | 96 | 1005.5 |
| 20260506115704 | 76 | 295 | 0.9 | 2.6 | 0.01 | 0.02 | 0.02 | 96 | 1005.5 |
| 20260506115204 | 76 | 57 | 0.9 | 2.6 | 0.01 | 0.02 | 0.02 | 96 | 1005.2 |
| 20260506114703 | 76 | 67 | 0.0 | 1.7 | 0.01 | 0.02 | 0.02 | 96 | 1005.4 |
| 20260506113704 | 76 | 61 | 0.9 | 1.7 | 0.01 | 0.02 | 0.01 | 96 | 1005.1 |
| 20260506113203 | 76 | 169 | 0.0 | 0.9 | 0.01 | 0.02 | 0.01 | 96 | 1005.1 |
| 20260506112705 | 76 | 51 | 0.0 | 1.7 | 0.01 | 0.02 | 0.01 | 96 | 1005.0 |
| 20260506112204 | 76 | 239 | 0.0 | 1.7 | 0.01 | 0.02 | 0.01 | 96 | 1005.1 |
| 20260506111704 | 76 | 324 | 0.0 | 0.9 | 0.00 | 0.01 | 0.01 | 96 | 1005.0 |
| 20260506111203 | 76 | 85 | 0.0 | 0.9 | 0.00 | 0.01 | 0.01 | 96 | 1005.0 |
| 20260506110703 | 76 | 217 | 0.0 | 0.9 | 0.00 | 0.01 | 0.01 | 96 | 1005.1 |
| 20260506104703 | 76 | 303 | 0.0 | 0.9 | 0.00 | 0.01 | 0.00 | 96 | 1004.9 |
| 20260506104203 | 76 | 71 | 0.0 | 0.9 | 0.00 | 0.01 | 0.00 | 96 | 1004.9 |
| 20260506103704 | 76 | 288 | 0.0 | 0.9 | 0.00 | 0.01 | 0.00 | 96 | 1004.8 |
| 20260506103203 | 76 | 203 | 0.0 | 0.9 | 0.00 | 0.01 | 0.00 | 95 | 1005.0 |
| 20260506102704 | 76 | 49 | 0.0 | 0.9 | 0.00 | 0.01 | 0.00 | 95 | 1005.1 |
| 20260506102204 | 76 | 276 | 0.0 | 0.9 | 0.00 | 0.01 | 0.00 | 95 | 1005.0 |
| 20260506101704 | 76 | 314 | 0.0 | 0.9 | 0.00 | 0.01 | 0.00 | 95 | 1005.1 |
| 20260506100703 | 76 | 75 | 0.0 | 1.7 | 0.00 | 0.01 | 0.00 | 95 | 1004.9 |
| 20260506100204 | 76 | 94 | 0.0 | 1.7 | 0.00 | 0.01 | 0.00 | 95 | 1004.8 |
| 20260506095704 | 76 | 129 | 0.9 | 1.7 | 0.00 | 0.01 | 0.00 | 95 | 1004.9 |
| 20260506094703 | 76 | 291 | 0.0 | 0.9 | 0.00 | 0.01 | 0.00 | 95 | 1004.8 |
| 20260506094204 | 76 | 94 | 0.0 | 1.7 | 0.00 | 0.00 | 0.00 | 95 | 1004.8 |
| 20260506093704 | 76 | 322 | 0.0 | 1.7 | 0.00 | 0.00 | 0.00 | 95 | 1004.7 |
| 20260506093203 | 76 | 107 | 0.0 | 1.7 | 0.00 | 0.00 | 0.00 | 95 | 1004.7 |
| 20260506092704 | 76 | 30 | 0.0 | 0.9 | 0.00 | 0.00 | 0.00 | 95 | 1004.9 |
| 20260506091703 | 76 | 193 | 0.0 | 1.7 | 0.00 | 0.00 | 0.00 | 94 | 1004.9 |
| 20260506091204 | 76 | 176 | 0.9 | 1.7 | 0.00 | 0.00 | 0.00 | 95 | 1004.8 |
| 20260506090704 | 76 | 49 | 0.0 | 1.7 | 0.00 | 0.00 | 0.00 | 94 | 1004.8 |
| 20260506090203 | 76 | 180 | 0.9 | 1.7 | 0.00 | 0.00 | 0.00 | 94 | 1004.8 |
| 20260506085704 | 76 | 137 | 0.0 | 0.9 | 0.00 | 0.00 | 0.00 | 94 | 1004.6 |
| 20260506085203 | 76 | 229 | 0.0 | 0.9 | 0.00 | 0.00 | 0.00 | 94 | 1004.6 |
| 20260506084704 | 76 | 279 | 0.0 | 0.9 | 0.00 | 0.00 | 0.00 | 94 | 1004.7 |
| 20260506084203 | 77 | 68 | 0.0 | 1.7 | 0.00 | 0.00 | 0.00 | 93 | 1004.8 |
| 20260506083703 | 77 | 53 | 0.0 | 1.7 | 0.00 | 0.00 | 0.00 | 93 | 1004.8 |
| 20260506083204 | 77 | 149 | 0.0 | 1.7 | 0.00 | 0.00 | 0.00 | 93 | 1004.7 |
| 20260506082203 | 77 | 162 | 0.0 | 1.7 | 0.00 | 0.00 | 0.00 | 93 | 1004.8 |
| 20260506081704 | 77 | 130 | 0.0 | 0.9 | 0.00 | 0.00 | 0.00 | 92 | 1004.8 |
| 20260506081203 | 77 | 186 | 0.0 | 0.9 | 0.00 | 0.00 | 0.00 | 92 | 1004.6 |
| 20260506080704 | 77 | 160 | 0.0 | 1.7 | 0.00 | 0.00 | 0.00 | 92 | 1004.8 |
| 20260506080204 | 77 | 129 | 0.0 | 1.7 | 0.00 | 0.00 | 0.00 | 93 | 1005.1 |
| 20260506073203 | 77 | 200 | 0.0 | 2.6 | 0.00 | 0.00 | 0.00 | 90 | 1005.1 |
| 20260506072204 | 77 | 170 | 0.9 | 2.6 | 0.00 | 0.00 | 0.00 | 91 | 1005.2 |
| 20260506071704 | 77 | 4 | 0.0 | 2.6 | 0.00 | 0.00 | 0.00 | 91 | 1005.2 |
| 20260506071204 | 78 | 48 | 0.0 | 2.6 | 0.00 | 0.00 | 0.00 | 90 | 1005.4 |
| 20260506070204 | 77 | 142 | 0.9 | 2.6 | 0.00 | 0.00 | 0.00 | 91 | 1005.5 |
| 20260506061703 | 78 | 154 | 0.0 | 2.6 | 0.00 | 0.00 | 0.00 | 90 | 1006.0 |
| 20260506061204 | 78 | 173 | 0.0 | 2.6 | 0.00 | 0.00 | 0.00 | 90 | 1006.1 |
| 20260506060204 | 78 | 155 | 0.9 | 1.7 | 0.00 | 0.00 | 0.00 | 90 | 1006.0 |
| 20260506050704 | 78 | 179 | 1.7 | 4.3 | 0.00 | 0.00 | 0.00 | 90 | 1005.4 |
| 20260506050204 | 78 | 172 | 0.9 | 4.3 | 0.00 | 0.00 | 0.00 | 89 | 1005.7 |
| 20260506044704 | 78 | 157 | 0.9 | 2.6 | 0.00 | 0.00 | 0.00 | 89 | 1005.6 |
| 20260506043704 | 78 | 168 | 1.7 | 4.3 | 0.00 | 0.00 | 0.00 | 89 | 1005.4 |
| 20260506043204 | 78 | 174 | 1.7 | 4.3 | 0.00 | 0.00 | 0.00 | 89 | 1005.4 |
| 20260506042703 | 78 | 152 | 0.9 | 4.3 | 0.00 | 0.00 | 0.00 | 89 | 1005.3 |
| 20260506041703 | 78 | 157 | 0.9 | 4.3 | 0.00 | 0.00 | 0.00 | 89 | 1005.1 |
| 20260506041203 | 78 | 180 | 1.7 | 5.2 | 0.00 | 0.00 | 0.00 | 89 | 1005.2 |
| 20260506040203 | 78 | 173 | 0.9 | 4.3 | 0.00 | 0.00 | 0.00 | 89 | 1005.3 |
| 20260506035703 | 78 | 139 | 0.9 | 4.3 | 0.00 | 0.00 | 0.00 | 89 | 1005.1 |
| 20260506035204 | 78 | 153 | 1.7 | 4.3 | 0.00 | 0.00 | 0.00 | 89 | 1005.2 |
| 20260506034204 | 78 | 173 | 1.7 | 4.3 | 0.00 | 0.00 | 0.00 | 89 | 1005.1 |
| 20260506033704 | 78 | 158 | 1.7 | 4.3 | 0.00 | 0.00 | 0.00 | 89 | 1005.0 |
| 20260506033204 | 78 | 156 | 0.9 | 2.6 | 0.00 | 0.00 | 0.00 | 89 | 1005.1 |
| 20260506032704 | 78 | 115 | 0.9 | 4.3 | 0.00 | 0.00 | 0.00 | 89 | 1005.1 |
| 20260506032204 | 78 | 171 | 0.9 | 4.3 | 0.00 | 0.00 | 0.00 | 88 | 1005.1 |
| 20260506031703 | 78 | 153 | 0.9 | 4.3 | 0.00 | 0.00 | 0.00 | 88 | 1005.1 |
| 20260506031203 | 78 | 150 | 0.9 | 4.3 | 0.00 | 0.00 | 0.00 | 88 | 1005.2 |
| 20260506030703 | 78 | 152 | 0.9 | 4.3 | 0.00 | 0.00 | 0.00 | 88 | 1005.2 |
| 20260506030203 | 78 | 162 | 1.7 | 4.3 | 0.00 | 0.00 | 0.00 | 88 | 1004.8 |
| 20260506025704 | 78 | 165 | 0.9 | 2.6 | 0.00 | 0.00 | 0.00 | 89 | 1004.8 |
| 20260506025204 | 78 | 148 | 0.9 | 4.3 | 0.00 | 0.00 | 0.00 | 89 | 1004.7 |
| 20260506024704 | 78 | 141 | 1.7 | 4.3 | 0.00 | 0.00 | 0.00 | 89 | 1004.8 |
| 20260506024204 | 78 | 164 | 0.9 | 2.6 | 0.00 | 0.00 | 0.00 | 88 | 1004.5 |
| 20260506022704 | 78 | 164 | 2.6 | 5.2 | 0.00 | 0.00 | 0.00 | 88 | 1004.4 |
| 20260506022204 | 78 | 171 | 1.7 | 4.3 | 0.00 | 0.00 | 0.00 | 88 | 1004.3 |
| 20260506021704 | 78 | 171 | 0.9 | 4.3 | 0.00 | 0.00 | 0.00 | 88 | 1004.4 |
| 20260506021204 | 78 | 177 | 1.7 | 4.3 | 0.00 | 0.00 | 0.00 | 88 | 1004.2 |
| 20260506020204 | 78 | 151 | 0.9 | 5.2 | 0.00 | 0.00 | 0.00 | 87 | 1004.3 |
| 20260506015203 | 78 | 174 | 0.9 | 2.6 | 0.00 | 0.00 | 0.00 | 87 | 1004.2 |
| 20260506014703 | 78 | 174 | 1.7 | 4.3 | 0.00 | 0.00 | 0.00 | 87 | 1004.1 |
| 20260506014203 | 78 | 183 | 0.9 | 4.3 | 0.00 | 0.00 | 0.00 | 87 | 1003.8 |
| 20260506013703 | 78 | 182 | 1.7 | 4.3 | 0.00 | 0.00 | 0.00 | 87 | 1003.8 |
| 20260506013204 | 79 | 138 | 0.9 | 4.3 | 0.00 | 0.00 | 0.00 | 87 | 1003.8 |
| 20260506012704 | 79 | 156 | 1.7 | 4.3 | 0.00 | 0.00 | 0.00 | 86 | 1003.7 |
| 20260506012204 | 79 | 168 | 1.7 | 4.3 | 0.00 | 0.00 | 0.00 | 86 | 1003.7 |
| 20260506011703 | 79 | 158 | 1.7 | 4.3 | 0.00 | 0.00 | 0.00 | 86 | 1003.8 |
| 20260506011204 | 79 | 177 | 0.9 | 4.3 | 0.00 | 0.00 | 0.00 | 86 | 1003.6 |
| 20260506010703 | 79 | 157 | 1.7 | 4.3 | 0.00 | 0.00 | 0.00 | 86 | 1003.4 |
| 20260506010203 | 79 | 155 | 0.9 | 4.3 | 0.00 | 0.00 | 0.00 | 86 | 1003.5 |
| 20260506005704 | 79 | 214 | 0.9 | 5.2 | 0.00 | 0.00 | 0.00 | 86 | 1003.5 |
| 20260506005203 | 79 | 159 | 1.7 | 5.2 | 0.00 | 0.00 | 0.00 | 86 | 1003.5 |
| 20260506004704 | 79 | 168 | 1.7 | 4.3 | 0.00 | 0.00 | 0.00 | 86 | 1003.4 |
| 20260506003704 | 79 | 179 | 0.9 | 5.2 | 0.00 | 0.00 | 0.00 | 85 | 1003.2 |
| 20260506003204 | 79 | 162 | 1.7 | 5.2 | 0.00 | 0.00 | 0.00 | 85 | 1003.2 |
| 20260506002704 | 80 | 166 | 0.9 | 5.2 | 0.00 | 0.00 | 0.00 | 84 | 1003.2 |
| 20260506002203 | 80 | 159 | 2.6 | 7.0 | 0.00 | 0.00 | 0.00 | 84 | 1003.3 |
| 20260506001703 | 80 | 157 | 2.6 | 7.0 | 0.00 | 0.00 | 0.00 | 83 | 1003.1 |